Location: Mainz-Finthen
(49.9906°N, 8.1713°E)
Time: 06:13:36
(UTC+00:00)

BlueWalker 3 - Pass Details

Date: 06 December 2022
Orbit: 499 x 517 km, 53.2° (Epoch: 28 January)

Event Time Altitude Azimuth Distance (km) Brightness Sun altitude
Rises 16:19:22 0° 283° (WNW) 2,635 6.5 -8.2°
Reaches altitude 10° 16:21:37 10° 288° (WNW) 1,744 5.4 -8.5°
Maximum altitude 16:25:30 54° 6° (N) 631 2.2 -9.1°
Enters shadow 16:29:01 12° 83° (E) 1,602 3.9 -9.6°
